Volver al catálogo

ARIANE 5 R/B

ActivoHEO
NORAD 33462·ROCKET BODY·🇫🇷 France

Lanzado Dec 20, 2008 desde Guiana Space Centre

Loading…

Próximos Pases (próximas 24 horas)

TLE

ActualizadoSource: Space-Track

Época: Sep 14, 2026, 11:48 UTC

1 33462U 08065D   26257.49211061  .00002426  00000-0  98264-3 0  9999
2 33462   4.1369 287.7708 7092675  52.8626 352.8437  2.50860371154674

Sigue ARIANE 5 R/B en tiempo real con AllMySat

Download on the App Store